Flag for Germany Weather past 2 weeks in Düren, North Rhine-Westphalia, Germany

Now
50 °F

Passing clouds.


Feels Like: 49 °F
Forecast: 42 / 47 °F
Wind: 3 mph from South

Location: Noervenich

Current Time: Oct 21, 2014 at 9:05:45 AM

Latest Report: Oct 21, 2014 at 8:20 AM


Visibility: N/A

Pressure: 29.80 "Hg

Humidity: 88%

Dew point: 46 °F

Location of DürenLocation

Historic Weather in Düren — Graph

°F

Düren temperature yesterday

Maximum temperature yesterday: 63 °F (at 3:20 PM)
Minimum temperature yesterday: 55 °F (at 5:20 AM)
Average temperature yesterday: 58 °F

Past Weeks' High & Low Weather Summary

 TemperatureHumidityPressure
High75 °F (Oct 19, 2:20 PM)100% (Oct 8, 10:47 PM)30.09 "Hg (Oct 8, 10:47 PM)
Low46 °F (Oct 11, 7:20 AM)46% (Oct 14, 2:20 PM)29.53 "Hg (Oct 7, 7:20 AM)
Average58 °F82%29.84 "Hg
* Reported Oct 6 7:20 AM — Oct 21 7:20 AM, Düren, Weather by CustomWeather, © 2014

Note: Actual official high and low records may vary slightly from our data, if they occured in-between our weather recording intervals... More about our weather records

Advertising

Düren weather history for previous 24 hours

 ConditionsComfort  
Time TempWeatherWind HumidityBarometerVisibility
7:20 AM
Oct 21
50 °FPassing clouds.5 mph88%29.83 "HgN/A
6:20 AM52 °FPassing clouds.3 mph82%29.86 "HgN/A
5:20 AM52 °FPassing clouds.3 mph88%29.86 "HgN/A
4:20 AM52 °FPassing clouds.3 mph88%29.89 "HgN/A
3:20 AM54 °FPassing clouds.5 mph82%29.92 "HgN/A
2:20 AM54 °FPassing clouds.6 mph82%29.95 "HgN/A
1:20 AM54 °FPassing clouds.6 mph82%29.95 "HgN/A
12:20 AM54 °FPassing clouds.6 mph88%29.95 "HgN/A
11:20 PM
Oct 20
55 °FPassing clouds.8 mph82%29.98 "HgN/A
10:20 PM55 °FPassing clouds.8 mph82%29.98 "HgN/A
9:20 PM55 °FPartly cloudy.8 mph77%29.98 "HgN/A
8:20 PM55 °FPassing clouds.5 mph82%29.98 "HgN/A
7:20 PM57 °FScattered clouds.6 mph77%30.01 "HgN/A
6:20 PM59 °FPartly sunny.6 mph77%29.98 "HgN/A
5:20 PM61 °FScattered clouds.7 mph72%30.01 "HgN/A
4:20 PM61 °FPartly sunny.9 mph72%30.04 "HgN/A
3:20 PM63 °FBroken clouds.9 mph68%30.04 "HgN/A
2:20 PM61 °FPartly sunny.8 mph72%30.07 "HgN/A
1:20 PM59 °FPartly sunny.8 mph77%30.07 "HgN/A
12:20 PM59 °FSprinkles. Partly sunny.9 mph77%30.07 "HgN/A
11:20 AM59 °FPartly sunny.8 mph77%30.07 "HgN/A
10:20 AM57 °FPartly sunny.9 mph82%30.07 "HgN/A
9:20 AM57 °FPartly sunny.7 mph82%30.07 "HgN/A
Weather by CustomWeather, © 2014

See weather overviewHow to use our weather pages